Regional Weather Roundup
Issued by NWS Charleston, SC

Current Version | Previous Version | Text Only | Print | Product List | Glossary Off
Versions: 1 2 3 4 5 6 7 8 9 10 11 12 13 14 15 16 17 18 19 20 21 22 23 24 25 26 27 28 29 30 31 32 33 34 35 36 37 38 39 40 41 42 43 44 45 46 47 48 49 50
000 ASUS42 KCHS 260312 RWRCHS REGIONAL WEATHER ROUNDUP NATIONAL WEATHER SERVICE CHARLESTON SC 1100 PM EDT TUE APR 25 2017 NOTE: "FAIR" INDICATES FEW OR NO CLOUDS BELOW 12,000 FEET WITH NO SIGNIFICANT WEATHER AND/OR OBSTRUCTIONS TO VISIBILITY. NOT ALL STATIONS ARE QUALITY CONTROLLED. USE DATA WITH CAUTION... ESPECIALLY DEWPOINT OBSERVATIONS. SCZ027-030-031-034>040-042>050-260400- ...SOUTHEAST SOUTH CAROLINA... CITY SKY/WX TMP DP RH WIND PRES REMARKS N CHARLESTON PTCLDY 66 60 81 SE3 29.79R WATERFRONT PRK N/A 69 65 86 CALM 29.77R JOHNS ISLAND FAIR 66 64 94 CALM 29.79R PINOPOLIS N/A 66 63 88 VRB2 29.70R MONCKS CORNER FAIR 61 59 94 CALM 29.79R SUMMERVILLE FAIR 61 61 100 CALM 29.79S BEAUFORT MCAS CLOUDY 70 65 84 CALM 29.79R BEAUFORT ARPT CLOUDY 70 64 83 CALM 29.79R HILTON HEAD IS CLEAR 68 66 94 CALM 29.80R WALTERBORO CLEAR 63 61 94 CALM 29.79S ALLENDALE FAIR 63 63 100 CALM 29.77R ...SOUTHERN MIDLANDS AND PEE DEE... CITY SKY/WX TMP DP RH WIND PRES REMARKS GEORGETOWN FAIR 59 57 94 CALM 29.80R KINGSTREE MOCLDY 61 59 94 CALM 29.78S ORANGEBURG CLEAR 61 60 97 CALM 29.79R BARNWELL FAIR 64 63 94 CALM 29.78R AIKEN FAIR 61 57 88 CALM 29.81R MANNING MOCLDY 59 57 94 S17 29.79R COLUMBIA CLEAR 65 60 84 CALM 29.77R SUMTER CLOUDY 63 60 89 CALM 29.76R FLORENCE MOCLDY 61 60 97 SW5 29.78R MYRTLE BEACH NOT AVBL N MYRTLE BEACH CLOUDY 63 60 90 W5 29.76S $$ GAZ063-065-086>088-099>101-113>116-118-119-134>141-150-260400- ...SOUTHEAST GEORGIA... CITY SKY/WX TMP DP RH WIND PRES REMARKS SAVANNAH ARPT MOCLDY 70 59 68 CALM 29.79R HUNTER AAF CLOUDY 74 64 71 CALM 29.76R FORT STEWART MOCLDY 68 60 76 CALM 29.76R STATESBORO CLEAR 65 65 100 CALM 29.79R SYLVANIA CLEAR N/A N/A N/A CALM 29.79R CLAXTON FAIR N/A N/A N/A CALM 29.79R ...CSRA...CENTRAL AND FAR SOUTHEAST GEORGIA... CITY SKY/WX TMP DP RH WIND PRES REMARKS THOMSON CLEAR 62 61 96 CALM 29.82R AUGUSTA-BUSH CLEAR 63 61 93 CALM 29.76R AUGUSTA-DANIEL CLEAR 69 58 67 SE5 29.78R SWAINSBORO FAIR 64 61 88 CALM 29.79R VIDALIA CLEAR 68 59 73 CALM 29.79R EASTMAN FAIR 64 54 68 CALM 29.81R HAZLEHURST FAIR 65 62 90 CALM 29.79R ALMA CLEAR 61 59 93 CALM 29.79R WAYCROSS CLEAR 70 61 72 SW7 29.80R JESUP FAIR 63 55 77 CALM 29.80R BAXLEY FAIR 64 64 100 CALM 29.79R BRUNSWICK CLOUDY 64 61 88 CALM 29.80R SAINT SIMONS CLEAR 72 61 68 SW5 29.79R $$ SCZ027-028-034-036>038-045-046-048>050-GAZ119-141-260400- ...LAKE AND SUPPLEMENTAL COASTAL OBSERVATIONS... STATION/POSITION TIME TEMP WIND PRES WAVE SWELL AIR SEA DIR/SP/G HT/PER HT/PER/DIR (UTC) (F) (DEG/KT/KT) (MB) (FT/S) (FT/S/D) WINYAH BAY 0145 65 280/ 2 1008.0 LAKE MURRAY 0220 65 CALM / 1 1007.5 ACE BASIN NERRS 0145 66 CALM 1008.0 FORT PULASKI 0248 72 73 180/ 1/ 2 1008.7R SAPELO ISLAND 0200 69 CALM 1008.0 $$ ANZ835-935-AMZ111-154-330-350-352-354-370-450-454-472-260400- ...C-MAN AND BUOY OBSERVATIONS... STATION/POSITION TIME TEMP WIND PRES WAVE SWELL AIR SEA DIR/SP/G HT/PER HT/PER/DIR (UTC) (F) (DEG/KT/KT) (MB) (FT/S) (FT/S/D) BUOY 41004 0250 72 73 240/ 12/ 16 1008.3R 5/ 9 3/120/ 9 BUOY 41008 0250 73 71 180/ 8/ 8 1008.5R 2/11 2/ 80/11 FOLLY BEACH CMAN 0300 70 240/ 4/ 5 1009.3R CAPERS NEARSHORE 0208 73 71 260/ 10/ 16 1007.9R FRIPP NEARSHORE 0208 72 72 210/ 10/ 12 1008.0R STATION/POSITION TIME TEMP WIND PRES WAVE SWELL AIR SEA DIR/SP/G HT/PER HT/PER/DIR (UTC) (F) (DEG/KT/KT) (MB) (FT/S) (FT/S/D) 5E ST. MARYS GA 0230 73 N/A 2/10 2/ 90/11 FRYING PAN BUOY 0250 69 75 270/ 16/ 19 1007.5R 6/ 9 5/130/ 9 BUOY 41025 0250 72 78 240/ 17/ 21 1004.6R 8/10 7/150/10 CAPE LOOKOUT NC 0300 66 260/ 15/ 18 1005.4R BUOY 41002 0250 73 76 230/ 17/ 21 1009.2R 9/ 8 3/250/14 BUOY 41010 0250 73 78 190/ 10/ 14 1011.0R 5/ 9 5/100/ 9 ST AUGUSTINE FL 0300 70 74 230/ 8/ 10 1011.1R $$

USA.gov is the U.S. government's official web portal to all federal, state and local government web resources and services.